Ardmore, OK

3:10 PM CST on November 24, 2017 (GMT -0600)
Ardmore Municipal

Weather History for KADM - October, 2012

Change the Weather History Date:

Sunday, October 21, 2012

  Actual Average Record
Temperature  
Mean Temperature 74 °F -  
Max Temperature 78 °F 71 °F 91 °F (2003)
Min Temperature 69 °F 52 °F 41 °F (2011)
Cooling Degree Days 8    
Growing Degree Days 24 (Base 50)    
Moisture  
Dew Point 68 °F    
Average Humidity 88    
Maximum Humidity 94    
Minimum Humidity 69    
Precipitation  
Precipitation 0.00 in - - ()
Sea Level Pressure  
Sea Level Pressure 29.77 in    
Wind  
Wind Speed 6 mph (SSE)    
Max Wind Speed 12 mph    
Max Gust Speed 16 mph    
Visibility 10 miles    
Events      
Averages and records for this station are not official NWS values.
T = Trace of Precipitation, MM = Missing Value Source: NWS Daily Summary

Daily Weather History Graph

Daily Weather History Graph

Search for Another Location

Airport or City:

Trip Planner

Search our weather history database for the weather conditions in past years. The results will help you decide how hot, cold, wet, or windy it might be!

Date:

Astronomy

Oct. 21, 2012 Rise Set
Actual Time 7:38 AM CDT 6:45 PM CDT
Civil Twilight 7:13 AM CDT 7:11 PM CDT
Nautical Twilight 6:43 AM CDT 7:40 PM CDT
Astronomical Twilight 6:14 AM CDT 8:09 PM CDT
Moon 1:55 PM CDT (10/21) No Moon Set
Length of Visible Light 11h 58m
Length of Day
11h 07m
Waxing Crescent, 45% of the Moon is Illuminated
Oct 21
Waxing Crescent
Oct 21
First Quarter
Oct 29
Full
Nov 6
Last Quarter
Nov 13
New

Hourly Weather History & Observations

Time (CDT) Temp. Dew Point Humidity Pressure Visibility Wind Dir Wind Speed Gust Speed Precip Events Conditions
12:15 AM 71.6 °F 66.2 °F 83% 29.74 in 10.0 mi SSE 4.6 mph - N/A   Clear
12:35 AM 71.6 °F 66.2 °F 83% 29.75 in 10.0 mi SSE 8.1 mph - N/A   Clear
12:55 AM 71.6 °F 66.2 °F 83% 29.75 in 10.0 mi SSE 6.9 mph - N/A   Clear
1:15 AM 71.6 °F 66.2 °F 83% 29.75 in 10.0 mi SSE 8.1 mph - N/A   Clear
1:35 AM 69.8 °F 66.2 °F 88% 29.75 in 10.0 mi SSE 4.6 mph - N/A   Clear
1:55 AM 69.8 °F 66.2 °F 88% 29.75 in 10.0 mi SSE 3.5 mph - N/A   Clear
2:15 AM 69.8 °F 66.2 °F 88% 29.76 in 10.0 mi SE 3.5 mph - N/A   Clear
2:35 AM 69.8 °F 68.0 °F 94% 29.76 in 10.0 mi SSE 3.5 mph - N/A   Clear
2:55 AM 69.8 °F 68.0 °F 94% 29.76 in 10.0 mi South 4.6 mph - N/A   Clear
3:15 AM 69.8 °F 68.0 °F 94% 29.77 in 10.0 mi South 3.5 mph - N/A   Clear
3:35 AM 69.8 °F 68.0 °F 94% 29.76 in 10.0 mi SSE 5.8 mph - N/A   Clear
4:15 AM 69.8 °F 68.0 °F 94% 29.76 in 10.0 mi Calm Calm - N/A   Clear
4:35 AM 69.8 °F 68.0 °F 94% 29.77 in 10.0 mi Calm Calm - N/A   Mostly Cloudy
4:55 AM 71.6 °F 69.8 °F 94% 29.77 in 10.0 mi South 3.5 mph - N/A   Mostly Cloudy
5:15 AM 71.6 °F 69.8 °F 94% 29.77 in 10.0 mi South 9.2 mph - N/A   Overcast
5:35 AM 73.4 °F 69.8 °F 88% 29.77 in 10.0 mi South 8.1 mph - N/A   Overcast
5:55 AM 73.4 °F 69.8 °F 88% 29.78 in 10.0 mi South 8.1 mph - N/A   Overcast
6:15 AM 73.4 °F 69.8 °F 88% 29.78 in 10.0 mi South 8.1 mph - N/A   Overcast
6:35 AM 73.4 °F 69.8 °F 88% 29.79 in 10.0 mi South 6.9 mph - N/A   Overcast
6:55 AM 73.4 °F 69.8 °F 88% 29.79 in 10.0 mi South 8.1 mph - N/A   Mostly Cloudy
11:35 PM 78.8 °F 68.0 °F 69% 29.83 in 10.0 mi SSE 9.2 mph - N/A   Clear
11:55 PM 78.8 °F 68.0 °F 69% 29.83 in 10.0 mi SSE 11.5 mph 16.1 mph N/A   Clear